Weather in Vatican

Vatican City     41°54′07″N   12°27′20″E
temp.,
°C
wind,
m/s
gust,
m/s
humid.,
%
clouds,
%
prec.,
mm/h
press.,
hPa
HPBL,
m
21 april, wed
wed2123:00+8n11810 0.0 101910
02:00+7nne11865 0.0 101911
05:00+6nne229056 0.0 101916
08:00+8ne1281100 0.0 1020111
11:00+15se125678 0.0 1019945
14:00+17sw234397 0.0 10191840
17:00+16sw5451100 0.0 1018960
20:00+12wsw2569100 0.0 1018138
22 april, thu
thu2223:00+11nnw1174100 0.0 101937
02:00+9nne3589100 0.6 1019152
05:00+9ene3788100 1.8 1018311
08:00+9nne3693100 2.3 1018222
11:00+12ne2375100 0.0 1018376
14:00+12se2281100 0.6 1018303
17:00+11wsw0196100 1.0 101763
20:00+11ne1197100 2.0 101828
23 april, fri
fri2323:00+11nne1195100 0.4 101821
02:00+10nne1194100 0.4 101827
05:00+8nne119310 0.0 101816
08:00+10nne248599 0.0 1019155
11:00+17nne11605 0.0 1018703
14:00+21n12475 0.0 10171454
17:00+20w445224 0.0 10161106
20:00+15ssw24755 0.2 1017174
24 april, sat
sat2423:00+12ne22860 0.0 101925
02:00+10nne34851 0.0 101979
05:00+8nne34840 0.0 101973
08:00+10nne34750 0.0 1020158
11:00+17nne22520 0.0 1019616
14:00+21nw11420 0.0 10181504
17:00+20wsw54512 0.0 1018647
20:00+14sw35760 0.0 1018117
25 april, sun
sun2523:00+12nne11820 0.0 102012
02:00+11nne22860 0.0 102020
05:00+9nne23873 0.0 102050
08:00+12nne22740 0.0 1020140
11:00+19ne10545 0.0 1020601
14:00+21sw4247100 0.0 10201438
17:00+20sw3250100 0.0 10191067
20:00+14wsw2476100 0.0 102093